Showing default

SONATE-2, 59112

Orbit data source: Space-Track

SONATE-2, 59112 is a payload satellite owned by U Wurzburg (DE) in SSO that was launched on Mon, 04 Mar 2024 UTC via an FALCON 9 launch vehicle from the Air Force Western Test Range (AFWTR). Payload-class satellites include a variety of spacecraft equipped with specific instruments for various scientific and technological missions. These include communications satellites like Starlink; space stations such as the ISS; scientific satellites like the Hubble; Earth observation satellites from companies like Planet Labs, Umbra, and HawkEye 360; GPS; miniature CubeSats for education and research; and military/defense satellites.

Loading next visibility...
Identifier
59112, 2024-043Q
Orbit
SSO
Country
Flag of DEDE / GER
Related business
Manufacturer
U Wurzburg
Mission
Operational Amateur Technology
Bus & Motor
CUBESAT 6U, Unknown motor
Mass
~12 kg wet, ~12 kg dry
Launch date (UTC)
2024-03-04 (2 years ago)
Launch vehicle
FALCON 9
Launch site
Air Force Western Test Range (AFWTR)
Object type
Payload
Rocket body
Debris
Shape & HBR
Box + 2 Pan, 0.3 m
Radar Cross Section
0.051 m², Medium (>0.1 m² and < 1m²)

Expand to show TLE details & history
Last TLE update: 19 hours ago

TLE from 19 hours ago
0 SONATE-2
1 59112U 24043Q   26033.86108058  .00033986  00000-0  63523-3 0  9992
2 59112  97.5356 177.2020 0008289 339.9086  20.1837 15.48637545107039
Epoch: 2026-02-02T20:39Z
TLE epoch observation values (Epoch: 2026-02-02T20:39:57.362Z)
Latitude
0.00002°
Longitude
94.16269°
Altitude
418.546 km
Speed
7.663 km/s
True Right ascension
11h 48m 48s
True Declination
0° 00' 00"
Sunlit
Object was in full shadow at epoch
Visualization orbit readout
Latitude
Unknown
Longitude
Unknown
Altitude
Unknown
Speed
Unknown
Apparent Right ascension
Unknown
Apparent Declination
Unknown
Sunlit
N/A
Visualization observer readout
Local Sidereal Time
17:08:13
Azimuth
Unknown
Elevation
Unknown
Doppler factor
Unknown
Orbital elements
Apogee altitude
423.277 km
Perigee altitude
412.011 km
Semi-major axis
6,795.781 km
Eccentricity
0.00083
Inclination
97.5356°
RAAN
177.202°
Arg. of periapsis
339.9086°
True anomaly
20.2165°
Mean anomaly
20.1837°
Eccentric anomaly
20.2001°
Mean motion
3.87422 °/min
Orbital period
92.92 mins
BSTAR
0.00063523
Loading maneuver chart data...
Computing Atmospheric mass density...
Loading historical data...
Loading historical data...
Loading historical data...
Loading historical data...
Loading historical data...
Loading historical data...
Loading historical data...

Documentation

Showing up to 5 results
|